[[{"header":{"parameterUnit":"m.s-1","parameterCategory":1,"la1":30.2991,"la2":30.254,"lo1":-89.0895,"lo2":-89.0444,"dy":0.0017,"dx":0.0017,"nx":28,"ny":28,"refTime":"2025-06-11T21:00:00:Z","depth":0,"parameterNumber":2,"parameterNumberName":"U-component_of_WINDS"},"data":[0,0,0,0,0,0,0,0,0,0,0,0,0,0,0,0,0,0,0,0,0,0,0,0,0,0,0,0,0,0,0,0,0,0,0,0,0,0,0,0,0,0,0,0,0,0,0,0,0,0,0,0,0,0,0,0,0,0,-0.9513,-0.9515,0,-0.9663,-0.9664,-0.9666,-0.9738,-0.9738,-0.9738,-0.9738,-0.9894,-0.9898,-0.9902,0,0,0,0,0,0,0,0,0,0,0,0,0,-0.9293,-0.9297,-0.9513,-0.9515,-0.9517,-0.9662,-0.9664,-0.9666,-0.9738,-0.9738,-0.9738,-0.9738,-0.9892,-0.9897,-0.9902,0,0,0,0,0,0,0,0,0,0,0,0,0,-0.941,-0.9298,-0.9513,-0.957,-0.9577,-0.9662,-0.9664,-0.9667,-0.9738,-0.9738,-0.9738,-0.9738,-0.9891,-0.9897,-0.9903,-0.9944,0,0,-0.9922,-0.9925,0,0,0,0,0,0,0,0,-0.9404,-0.9418,-0.956,-0.9566,-0.9574,-0.9682,-0.9644,-0.976,-0.9738,-0.9677,-0.9738,-0.9738,-0.9823,-0.9835,-0.9864,-0.9951,-0.9958,-0.9923,-0.9927,-0.9929,-0.9931,0,0,0,0,0,0,0,-0.9395,-0.9412,-0.9572,-0.9562,-0.957,-0.9589,-0.9606,-0.9666,-0.9749,-0.9682,-0.9688,-0.9704,-0.9827,-0.9857,-0.9868,-0.996,-0.9923,-0.9928,-0.9932,-0.9935,-1.009,-1.009,0,0,0,0,0,0,-0.9378,-0.9405,-0.9568,-0.9577,-0.9487,-0.9593,-0.9612,-0.9647,-0.9748,-0.9764,-0.9704,-0.9707,-0.9847,-0.986,-0.9873,-0.9929,-0.9929,-0.9935,-0.9939,-1.009,-1.009,-1.0091,0,0,0,0,0,0,-0.9373,-0.9391,-0.9562,-0.9493,-0.9516,-0.9597,-0.9636,-0.965,-0.968,-0.9765,-0.978,-0.9719,-0.9847,-0.9865,-0.9926,-0.9935,-0.9938,-0.9944,-1.0089,-1.009,-1.009,-1.0039,0,0,0,0,0,0,-0.9366,-0.9389,-0.9404,-0.9492,-0.9519,-0.961,-0.9637,-0.9653,-0.969,-0.9696,-0.9783,-0.9798,-0.9848,-0.9916,-0.9932,-0.9944,-0.9949,-1.0089,-1.009,-1.009,-1.004,-1.0037,-1.0035,0,0,0,0,0,-0.9358,-0.9384,-0.9405,-0.9424,-0.954,-0.961,-0.9626,-0.9682,-0.9691,-0.9708,-0.9762,-0.9795,-0.9931,-0.9922,-0.994,-0.9954,-1.0089,-1.0089,-1.009,-1.0041,-1.0038,-1.0035,0,0,0,0,0,0,-0.9296,-0.9397,-0.9421,-0.9476,-0.9534,-0.9622,-0.9645,-0.9677,-0.9735,-0.9737,-0.9806,-0.9825,-0.9881,-0.9924,-0.9911,-1.0,-1.0013,-1.0018,-0.9969,-0.9967,-0.9965,-0.9953,-0.9954,0,0,0,0,0,-0.9288,-0.9336,-0.9422,-0.9463,-0.9491,-0.9563,-0.9596,-0.9634,-0.9698,-0.9723,-0.9782,-0.9843,-0.99,-0.9936,-0.9993,-1.0047,-1.0068,-1.0065,-1.0063,-1.0061,-1.0064,-1.0097,-1.0097,-1.0093,-1.0093,-1.0093,0,0,-0.9274,-0.9335,-0.9361,-0.9452,-0.9501,-0.9551,-0.9583,-0.9633,-0.9671,-0.9731,-0.9792,-0.9838,-0.9911,-0.9969,-0.9997,-1.0006,-1.007,-1.0062,-1.0059,-1.0064,-1.0098,-1.0098,-1.0098,-1.0094,-1.0094,-1.0094,0,0,-0.9272,-0.9323,-0.9363,-0.9412,-0.9486,-0.9534,-0.9544,-0.9628,-0.966,-0.9723,-0.9769,-0.9816,-0.9912,-0.9962,-1.0,-1.0019,-1.0052,-1.0036,-1.0024,-1.0055,-1.0055,-1.0056,-1.0064,-1.0066,-1.0039,-1.0039,-1.0039,0,-0.9245,-0.932,-0.9379,-0.9428,-0.9467,-0.9523,-0.9564,-0.961,-0.9699,-0.9726,-0.9734,-0.9857,-0.991,-0.9981,-0.9986,-1.0014,-1.0029,-1.0026,-1.005,-1.0052,-1.0053,-1.0061,-1.0064,-1.0037,-1.0037,-1.0037,-1.0037,0,-0.9284,-0.9335,-0.9359,-0.9443,-0.9485,-0.953,-0.9597,-0.9633,-0.9668,-0.9715,-0.9779,-0.9845,-0.9917,-0.9937,-0.9972,-1.0013,-1.0017,-1.0037,-1.0052,-1.005,-1.0059,-1.0063,-1.0033,-1.0034,-1.0035,-1.0035,0,0,-0.9247,-0.9364,-0.9371,-0.9411,-0.9498,-0.9539,-0.9588,-0.9657,-0.9687,-0.9747,-0.979,-0.9871,-0.989,-0.9934,-0.9975,-1.0003,-1.0015,-1.002,-1.0023,-1.0017,-1.0066,-1.005,-1.0053,-1.0037,-1.0038,-1.0039,-1.006,0,-0.9258,-0.9345,-0.94,-0.9466,-0.9516,-0.957,-0.9612,-0.9671,-0.9716,-0.9766,-0.9818,-0.9874,-0.9895,-0.9922,-0.9951,-1.0007,-1.0026,-1.0006,-1.0079,-1.0081,-1.0059,-1.0058,-1.0041,-1.0058,-1.0064,-1.0065,-1.0065,0,-0.9283,-0.9341,-0.9411,-0.9494,-0.9516,-0.9553,-0.9622,-0.9668,-0.9736,-0.9768,-0.9817,-0.9859,-0.9914,-0.9924,-1.0001,-0.9986,-1.002,-1.0052,-1.0054,-1.0063,-1.0073,-1.0067,-1.0065,-1.0068,-1.0071,-1.0071,-1.007,0,-0.9249,-0.9346,-0.9401,-0.9433,-0.953,-0.9555,-0.9597,-0.9665,-0.9703,-0.9764,-0.979,-0.9857,-0.9893,-0.9944,-1.0004,-1.0006,-1.0075,-1.009,-1.0104,-1.0103,-1.0117,-1.0115,-1.012,-1.0137,-1.0137,-1.0137,-1.0137,0,-0.9256,-0.9298,-0.9387,-0.9421,-0.9469,-0.9533,-0.958,-0.9626,-0.9687,-0.9731,-0.9783,-0.9824,-0.99,-0.9951,-0.9999,-1.0056,-1.0072,-1.01,-1.0112,-1.0096,-1.0092,-1.0119,-1.0119,-1.0138,-1.0137,-1.0137,-1.0137,0,-0.9228,-0.9289,-0.9352,-0.944,-0.9462,-0.9494,-0.957,-0.9605,-0.9654,-0.9711,-0.9728,-0.9805,-0.9868,-0.9932,-1.0018,-1.005,-1.0106,-1.0122,-1.0082,-1.0089,-1.01,-1.0098,-1.0122,-1.0129,-1.014,-1.014,-1.014,0,-0.9228,-0.9261,-0.9351,-0.9385,-0.9425,-0.9478,-0.9518,-0.9583,-0.9622,-0.9703,-0.973,-0.9796,-0.9853,-0.9951,-1.0016,-1.0082,-1.0101,-1.0105,-1.0111,-1.0094,-1.0102,-1.0099,-1.0104,-1.0102,-1.0102,-1.0101,-1.0101,0,-0.9223,-0.9252,-0.9306,-0.9372,-0.9418,-0.9473,-0.953,-0.9554,-0.9631,-0.9673,-0.9737,-0.9781,-0.9869,-0.9935,-1.0009,-1.0054,-1.0091,-1.0099,-1.0106,-1.0089,-1.0065,-1.0079,-1.0076,-1.0098,-1.0098,-1.0098,-1.0099,-1.0099,-0.9209,-0.9242,-0.931,-0.937,-0.942,-0.9472,-0.951,-0.9564,-0.9618,-0.9694,-0.9729,-0.9794,-0.9864,-0.9967,-1.0011,-1.0064,-1.0074,-1.0084,-1.0086,-1.0088,-1.0084,-1.0056,-1.0077,-1.0078,-1.0078,-1.0078,-1.0078,0,-0.9207,-0.9254,-0.9309,-0.9387,-0.9434,-0.9464,-0.9529,-0.9567,-0.9623,-0.9684,-0.9739,-0.9814,-0.9878,-0.9948,-1.0017,-1.0047,-1.0065,-1.0063,-1.0061,-1.0071,-1.0071,-1.0058,-1.0046,-1.0046,-1.0046,-1.0046,-1.0046,-1.0046,-0.9212,-0.9268,-0.9305,-0.9388,-0.9435,-0.9498,-0.9533,-0.9582,-0.9632,-0.9713,-0.9766,-0.9811,-0.9876,-0.9951,-1.0012,-1.0031,-1.0055,-1.0047,-1.0071,-1.0069,-1.0071,-1.0074,-1.0062,-1.0051,-1.0051,-1.0068,-1.0068,-1.0068]},{"header":{"parameterUnit":"m.s-1","parameterCategory":1,"la1":30.2991,"la2":30.254,"lo1":-89.0895,"lo2":-89.0444,"dy":0.0017,"dx":0.0017,"nx":28,"ny":28,"refTime":"2025-06-11T21:00:00:Z","depth":0,"parameterNumber":3,"parameterNumberName":"V-component_of_WINDS"},"data":[0,0,0,0,0,0,0,0,0,0,0,0,0,0,0,0,0,0,0,0,0,0,0,0,0,0,0,0,0,0,0,0,0,0,0,0,0,0,0,0,0,0,0,0,0,0,0,0,0,0,0,0,0,0,0,0,0,0,5.3927,5.3926,0,5.3897,5.3897,5.3897,5.3832,5.3831,5.3829,5.3828,5.3799,5.38,5.38,0,0,0,0,0,0,0,0,0,0,0,0,0,5.3929,5.3929,5.3927,5.3926,5.3926,5.3897,5.3897,5.3896,5.3832,5.3831,5.3829,5.3828,5.3799,5.38,5.38,0,0,0,0,0,0,0,0,0,0,0,0,0,5.3917,5.3929,5.3927,5.389,5.3887,5.3897,5.3897,5.3896,5.3833,5.3831,5.3829,5.3827,5.3799,5.38,5.38,5.3844,0,0,5.3802,5.3803,0,0,0,0,0,0,0,0,5.3917,5.3917,5.3896,5.3893,5.3889,5.3866,5.3887,5.3879,5.3833,5.3853,5.3828,5.3826,5.3823,5.3822,5.3821,5.3843,5.3842,5.3802,5.3803,5.3803,5.3803,0,0,0,0,0,0,0,5.3918,5.3917,5.3915,5.3896,5.3892,5.3876,5.3872,5.3885,5.385,5.3851,5.3847,5.3844,5.3821,5.382,5.382,5.3841,5.3802,5.3803,5.3804,5.3804,5.3897,5.3899,0,0,0,0,0,0,5.3924,5.3919,5.3916,5.3914,5.3899,5.3878,5.3873,5.3876,5.3849,5.3843,5.3846,5.3841,5.382,5.3819,5.3818,5.3867,5.3803,5.3804,5.3804,5.3895,5.3897,5.39,0,0,0,0,0,0,5.3924,5.3925,5.3917,5.3915,5.3913,5.388,5.3883,5.3876,5.3875,5.3845,5.3839,5.3851,5.3818,5.3817,5.3838,5.3865,5.3804,5.3805,5.3892,5.3896,5.3898,5.3965,0,0,0,0,0,0,5.3925,5.3925,5.3941,5.3916,5.3913,5.3937,5.3885,5.3877,5.3876,5.387,5.3849,5.3843,5.3817,5.3837,5.3839,5.3865,5.3805,5.389,5.3894,5.3897,5.396,5.397,5.3978,0,0,0,0,0,5.3925,5.3961,5.3942,5.3942,5.3932,5.3939,5.3937,5.3906,5.3879,5.3895,5.3875,5.3844,5.3862,5.384,5.3841,5.3868,5.3888,5.3893,5.3897,5.3956,5.3968,5.3978,0,0,0,0,0,0,5.3991,5.3957,5.3936,5.3965,5.3955,5.3928,5.3947,5.392,5.3917,5.3912,5.3873,5.3869,5.3895,5.3883,5.3859,5.3908,5.387,5.3875,5.3914,5.3925,5.3934,5.3936,5.3806,0,0,0,0,0,5.4009,5.4016,5.3987,5.4015,5.4012,5.398,5.3982,5.3958,5.3947,5.3943,5.3925,5.3915,5.3919,5.3922,5.3923,5.3959,5.3953,5.3978,5.3987,5.3994,5.3999,5.4016,5.4026,5.3915,5.3915,5.3915,0,0,5.4046,5.4028,5.4036,5.4028,5.4018,5.4027,5.3977,5.3989,5.3995,5.3944,5.3962,5.3949,5.3936,5.3964,5.3975,5.3955,5.4029,5.4,5.4007,5.4007,5.4022,5.4032,5.4042,5.3918,5.3917,5.3917,0,0,5.4117,5.4105,5.4127,5.4118,5.4103,5.4082,5.4087,5.4064,5.4053,5.4071,5.4033,5.404,5.4047,5.4039,5.4036,5.4105,5.4075,5.4107,5.4153,5.417,5.4179,5.4187,5.421,5.4219,5.4111,5.4111,5.4112,0,5.4165,5.4176,5.4142,5.4156,5.4153,5.4108,5.413,5.4123,5.411,5.4109,5.4087,5.4094,5.4083,5.4107,5.4124,5.4124,5.4128,5.4108,5.4181,5.4188,5.4194,5.4216,5.4225,5.4115,5.4115,5.4114,5.4114,0,5.4235,5.4244,5.4264,5.4251,5.4251,5.4269,5.4238,5.4242,5.4219,5.4201,5.4219,5.4203,5.42,5.4205,5.4183,5.4227,5.4215,5.4187,5.4148,5.4209,5.4229,5.4237,5.4121,5.4119,5.4118,5.4117,0,0,5.4346,5.4315,5.4322,5.4316,5.4296,5.4302,5.4318,5.4315,5.4319,5.4312,5.4324,5.4331,5.4305,5.4302,5.4279,5.4294,5.4348,5.4264,5.4263,5.4279,5.4395,5.4414,5.4424,5.4329,5.4331,5.4332,5.4395,0,5.4412,5.4437,5.4407,5.4438,5.4445,5.4403,5.4416,5.4406,5.439,5.4394,5.4375,5.438,5.4347,5.4344,5.4358,5.4339,5.4371,5.4334,5.434,5.434,5.4342,5.4435,5.4456,5.4516,5.4403,5.4404,5.4405,0,5.4492,5.4487,5.4519,5.4497,5.4499,5.4512,5.4506,5.4511,5.4498,5.4485,5.4481,5.4453,5.4468,5.443,5.4449,5.4425,5.4426,5.4417,5.4419,5.4417,5.4375,5.4434,5.4534,5.4543,5.4417,5.4416,5.4415,0,5.4568,5.457,5.4589,5.4585,5.456,5.457,5.456,5.4546,5.4546,5.4541,5.4541,5.4538,5.4537,5.4536,5.4508,5.4484,5.453,5.4491,5.4519,5.452,5.4529,5.4529,5.463,5.4533,5.4533,5.4533,5.4532,0,5.4643,5.4664,5.4623,5.4634,5.4656,5.4622,5.4645,5.4631,5.4619,5.4627,5.4591,5.4599,5.4563,5.4568,5.4546,5.4564,5.4565,5.4554,5.4548,5.4556,5.4557,5.4555,5.4549,5.4535,5.4534,5.4534,5.4533,0,5.4731,5.4704,5.4722,5.4697,5.4691,5.4709,5.4687,5.4697,5.4678,5.4689,5.469,5.4661,5.4664,5.4637,5.4636,5.4621,5.4649,5.4637,5.4653,5.4649,5.4678,5.4675,5.478,5.4791,5.4688,5.4689,5.469,0,5.478,5.4795,5.4772,5.4774,5.4766,5.4771,5.477,5.4738,5.4739,5.4726,5.4737,5.4738,5.4737,5.4745,5.4723,5.4722,5.4708,5.4745,5.4708,5.4716,5.4707,5.4706,5.4707,5.4752,5.4754,5.4755,5.4756,0,5.487,5.4856,5.4856,5.4852,5.4853,5.4848,5.4841,5.4846,5.481,5.4814,5.4816,5.4816,5.4814,5.4815,5.481,5.48,5.4772,5.4768,5.4774,5.4782,5.479,5.4785,5.4673,5.4765,5.4764,5.4763,5.4763,5.4763,5.4939,5.4949,5.4934,5.4936,5.4928,5.4922,5.493,5.4912,5.4914,5.4909,5.4891,5.4897,5.4884,5.4874,5.4867,5.4871,5.4853,5.4863,5.4865,5.4867,5.4872,5.4791,5.487,5.487,5.487,5.4869,5.4869,0,5.5025,5.5013,5.5015,5.5006,5.5008,5.4982,5.4973,5.4976,5.4982,5.4972,5.4971,5.4975,5.4975,5.4954,5.4953,5.496,5.4947,5.4961,5.4959,5.4957,5.4889,5.4883,5.4971,5.4971,5.4971,5.4971,5.4971,5.4971,5.507,5.5087,5.5071,5.5083,5.5072,5.5077,5.5074,5.5069,5.506,5.5066,5.5066,5.5052,5.5038,5.5035,5.5034,5.5028,5.5028,5.5046,5.5035,5.4972,5.4962,5.4952,5.4946,5.5047,5.5047,5.5103,5.5103,5.5104]}]]